This is the latest recevied weather packets stored in our database for station/object KS5S. If no packets are shown the sender has not sent any weather packets the latest 1 day(s).
| Time | Temp. | Humidity | Pressure | Rain* | Wind** | Luminosity | Snow |
|---|---|---|---|---|---|---|---|
| 1778036089 | 23.33° C | 72% | 1005.7 hPa | 0 mm | 2.24 m/s, 63° | 0 W/m² | - |
| 1778035786 | 23.89° C | 71% | 1005.9 hPa | 0 mm | 2.24 m/s, 3° | 0 W/m² | - |
| 1778035483 | 23.89° C | 70% | 1005.5 hPa | 0 mm | 3.13 m/s, 351° | 0 W/m² | - |
| 1778035178 | 23.89° C | 70% | 1005.2 hPa | 0 mm | 2.68 m/s, 5° | 0 W/m² | - |
| 1778034875 | 23.89° C | 70% | 1004.9 hPa | 0 mm | 2.24 m/s, 359° | 0 W/m² | - |
| 1778034572 | 24.44° C | 69% | 1005.2 hPa | 0 mm | 2.24 m/s, 357° | 0 W/m² | - |
| 1778034270 | 24.44° C | 69% | 1005 hPa | 0 mm | 1.79 m/s, 311° | 0 W/m² | - |
| 1778033968 | 25° C | 68% | 1004.9 hPa | 0 mm | 3.13 m/s, 348° | 0 W/m² | - |
| 1778033665 | 25° C | 68% | 1004.8 hPa | 0 mm | 1.79 m/s, 359° | 0 W/m² | - |
| 1778033362 | 25° C | 68% | 1004.5 hPa | 0 mm | 1.79 m/s, 356° | 0 W/m² | - |
| 1778033060 | 25.56° C | 68% | 1004.4 hPa | 0 mm | 2.24 m/s, 1° | 0 W/m² | - |
| 1778032756 | 25.56° C | 67% | 1004.3 hPa | 0 mm | 2.24 m/s, 356° | 0 W/m² | - |
| 1778032454 | 25.56° C | 67% | 1004 hPa | 0 mm | 1.79 m/s, 357° | 0 W/m² | - |
| 1778032151 | 25.56° C | 67% | 1003.7 hPa | 0 mm | 1.79 m/s, 15° | 0 W/m² | - |
| 1778031848 | 25.56° C | 66% | 1003.9 hPa | 0 mm | 3.13 m/s, 358° | 0 W/m² | - |
| 1778031544 | 26.11° C | 66% | 1003.5 hPa | 0 mm | 2.24 m/s, 19° | 0 W/m² | - |
| 1778031242 | 26.11° C | 67% | 1003.8 hPa | 0 mm | 2.24 m/s, 15° | 0 W/m² | - |
| 1778030938 | 26.11° C | 66% | 1003.7 hPa | 0 mm | 0.89 m/s, 354° | 0 W/m² | - |
| 1778030635 | 26.11° C | 67% | 1003.3 hPa | 0 mm | 0.89 m/s, 3° | 0 W/m² | - |
| 1778030332 | 26.11° C | 65% | 1003.2 hPa | 0 mm | 0.89 m/s, 356° | 0 W/m² | - |
| 1778030029 | 26.67° C | 65% | 1003.3 hPa | 0 mm | 1.34 m/s, 332° | 0 W/m² | - |
| 1778029726 | 26.67° C | 65% | 1003.7 hPa | 0 mm | 0.45 m/s, 332° | 1 W/m² | - |
| 1778029424 | 26.67° C | 65% | 1003.4 hPa | 0 mm | 0.45 m/s, 323° | 2 W/m² | - |
| 1778029121 | 26.67° C | 66% | 1003.2 hPa | 0 mm | 0.89 m/s, 294° | 5 W/m² | - |
| 1778028818 | 26.67° C | 66% | 1003 hPa | 0 mm | 1.79 m/s, 8° | 6 W/m² | - |
* Rain latest hour (hover to see other rain measurements)
** Current wind speed in m/s (hover to see current wind gust speed)